SCP
-0 0 0 0 0 0 0 0 0 0 0 0 0 0 0 0 0 0 0 0 0 -0 -0 0 -0 -0 -0 -0 -0 -0 -0 -0 -0 0 0 0 0 0 0 0 0 0 0
0 0 0 0 0 0 0 0 0 0 0 0 0 0 0 0 0 0 0 0 0 0 0 0 0 0 -0 -0 -0 -0 0 0 0 0 0 0 0 0 0 0 0 0 0
0 0 0 0 0 0 0 0 0 0 0 0 0 0 0 0 0 0 0 0 0 0 0 0 0 0 0 0 0 0 0 0 0 0 0 0 0 0 0 0 0 0 0
0 0 0 0 0 0 0 0 0 0 0 0 0 0 0 0 0 0 0 0 0 0 0 0 0 0 0 0 0 0 0 0 0 0 0 0 0 0 0 0 0 0 0
0 0 0 0 0 0 0 -0 0 -0 0 0 0 0 0 0 0 0 0 0 0 0 0 0 0 0 0 0 0 0 0 0 0 0 0 0 0 0 0 0 0 0 0
0 0 0 0 0 0 0 0 -0 0 0 0 0 0 0 0 0 0 0 0 0 0 0 0 0 0 0 0 0 0 0 0 0 0 0 0 0 0 0 0 0 0 0
0 0 0 0 0 0 0 0 0 0 0 0 0 0 0 0 0 0 0 0 0 0 0 0 0 0 0 0 0 0 0 0 0 0 0 0 0 0 0 0 0 0 0
0 0 0 0 0 0 0 0 0 0 0 0 0 0 0 0 0 0 0 0 0 0 0 0 0 0 0 0 0 0 0 0 0 0 0 0 0 0 0 0 0 0 0
0 0 0 0 0 0 0 0 0 0 0 0 0 0 0 0 0 0 0 0 0 0 0 0 0 0 0 0 0 0 0 0 0 0 0 0 0 0 0 0 0 0 0
0 0 0 0 0 0 0 0 0 0 0 0 0 0 0 0 0 0 0 0 0 0 0 0 0 0 0 0 0 0 0 0 0 0 0 0 0 0 0 0 0 0 0
0 0 0 0 0 0 0 0 0 0 0 0 0 0 0 0 0 0 0 0 0 0 0 0 0 0 0 0 0 0 0 0 0 0 0 0 0 0 0 0 0 0 0
0 0 0 0 0 0 0 0 0 0 0 0 0 0 0 0 0 0 0 0 0 0 0 0 0 0 0 0 0 0 0 0 0 0 0 0 0 0 0 0 0 0 0
0 0 0 0 0 0 0 0 0 0 0 0 0 0 0 0 0 0 0 0 0 0 0 0 0 0 0 0 0 0 0 0 0 0 0 0 0 0 0 0 0 0 0
0 0 0 0 0 0 0 0 0 0 0 0 0 0 0 0 0 0 0 0 0 0 0 0 0 0 0 0 0 0 0 0 0 0 0 0 0 0 0 0 0 0 0
0 0 0 0 0 0 0 0 0 0 0 0 0 0 0 0 0 0 0 0 0 0 0 0 0 0 0 0 0 0 0 0 0 0 0 0 0 0 0 0 0 0 0
1 0 0 0 0 0 0 0 0 0 0 0 0 0 0 0 0 0 0 0 0 0 0 0 0 0 0 0 0 0 0 -0 0 0 0 0 0 0 0 0 0 0 0
1 1 0 0 0 0 0 0 0 0 0 0 0 0 0 0 0 0 0 0 0 0 0 0 0 0 0 0 0 0 0 0 0 0 0 0 0 0 0 0 0 0 0
1 1 0 0 0 0 0 0 0 0 0 0 0 0 0 0 0 0 0 0 0 0 0 0 0 0 0 0 0 0 0 0 0 0 0 0 0 0 0 0 0 0 0
0 0 0 0 0 0 0 0 0 0 0 0 0 0 0 0 0 0 0 0 0 0 0 0 0 0 0 0 0 0 0 0 0 0 0 0 0 0 0 0 0 0 0
1 0 0 0 0 0 0 0 0 0 0 0 0 0 0 0 0 0 0 0 0 0 0 0 0 0 0 0 0 0 0 0 0 0 0 0 0 0 0 0 0 0 0
0 0 0 0 0 0 0 0 0 0 0 0 0 0 0 0 0 0 0 0 0 0 0 0 0 0 0 0 0 0 0 0 0 0 0 0 0 0 0 0 0 0 0
1 0 0 0 0 0 0 0 0 0 0 0 0 0 0 0 0 0 0 0 0 0 0 0 0 0 0 0 0 0 0 0 0 0 0 0 0 0 0 0 0 0 0
0 0 0 0 0 0 0 0 0 0 0 0 0 0 0 0 0 0 0 0 0 0 0 0 0 0 0 0 0 0 0 0 0 0 0 0 0 0 0 0 0 0 0
0 0 0 0 0 0 0 0 0 0 0 0 0 0 0 0 0 0 0 0 0 0 0 0 0 0 0 0 0 0 0 0 0 0 0 0 0 0 0 0 0 0 0
0 0 0 0 0 0 0 0 0 0 0 0 0 0 0 0 0 0 0 0 0 0 0 0 -0 0 -0 -0 -0 0 0 0 0 0 0 0 0 0 0 0 0 0 0
0 0 0 0 0 0 0 0 0 0 0 0 0 0 0 0 0 0 0 0 0 0 0 0 0 0 0 0 0 -0 0 0 0 0 0 0 0 0 0 0 0 0 0
Wind_Speed_500mb
15 15 10 8 5 4 3 0 3 2 1 5 12 13 15 18 22 21 21 29 34 35 31 31 36 36 35 36 36 35 35 30 23 20 19 18 17 13 13 13 14 18 22
19 14 12 9 7 6 4 4 4 3 7 9 12 11 13 15 17 20 18 18 25 29 29 26 27 30 34 36 40 43 46 42 33 29 24 20 20 21 22 23 23 24 26
21 18 14 12 11 10 9 8 7 6 11 16 16 13 13 13 13 13 16 14 14 21 22 20 24 25 29 33 39 45 50 48 42 37 29 21 17 18 19 19 21 22 23
26 20 18 16 13 15 14 13 10 10 14 17 19 18 17 13 11 9 9 11 12 9 13 11 16 17 22 25 28 39 45 47 50 44 36 29 20 16 17 18 18 19 21
30 26 23 19 17 19 20 17 14 12 13 16 22 22 20 16 13 10 8 8 9 10 11 5 5 8 12 17 26 32 38 42 46 48 42 36 32 27 22 22 21 23 24
34 35 32 25 22 25 26 25 20 17 15 18 24 25 23 21 17 14 11 11 11 10 9 10 7 7 6 13 22 27 31 35 41 46 42 37 32 30 29 28 27 24 22
41 41 36 32 29 29 30 29 27 22 22 22 24 28 24 22 19 17 15 14 15 11 9 9 6 6 7 19 23 26 29 35 43 46 43 36 28 27 30 31 31 32 32
47 45 41 34 32 34 36 36 34 28 26 28 29 23 15 11 19 18 16 16 18 14 12 14 12 7 8 9 17 25 31 38 43 44 41 35 31 28 26 29 34 36 33
58 50 45 40 32 36 39 41 39 33 30 32 31 19 14 14 17 15 16 18 18 16 19 22 15 11 13 12 14 21 34 42 45 44 37 33 32 32 30 31 32 32 34
67 62 55 45 33 37 42 44 43 37 31 31 33 35 25 17 16 12 17 19 22 25 26 17 18 16 14 11 20 29 37 43 45 45 35 31 32 33 33 31 31 34 35
72 68 56 49 30 33 43 51 50 45 37 34 33 33 35 31 28 16 19 20 25 27 28 23 17 15 15 12 15 29 36 38 41 35 30 30 32 33 34 32 33 36 37
71 66 53 39 36 44 50 53 53 48 43 37 34 32 29 29 30 25 20 27 23 24 28 24 18 15 16 20 19 28 34 38 33 28 29 32 34 36 34 34 37 37 37
71 84 70 33 12 50 62 58 58 53 48 43 38 35 30 28 21 23 23 31 27 23 19 23 20 17 15 15 19 24 31 27 23 23 26 28 31 35 37 39 40 41 41
80 79 71 44 36 51 70 65 60 56 52 47 43 38 31 24 20 20 24 31 29 23 21 17 19 15 13 13 19 23 16 18 21 25 28 30 31 32 35 38 40 43 44
99 82 83 61 46 58 69 73 67 63 59 53 47 40 32 27 25 24 27 30 29 26 27 25 15 17 11 11 18 15 17 20 27 30 30 30 31 34 37 40 42 44 45
93 84 93 82 61 72 73 77 71 69 65 60 53 47 40 34 30 26 31 35 32 26 23 23 21 15 9 8 11 14 18 22 25 27 30 29 29 31 32 33 33 38 43
92 84 96 94 71 75 79 79 75 73 68 60 55 49 42 36 30 25 28 30 30 28 28 25 21 17 6 2 9 15 17 16 17 26 26 29 30 31 30 29 33 36 39
93 83 94 100 74 81 84 84 81 76 70 65 55 51 44 38 30 25 28 30 30 32 31 31 25 14 10 1 8 12 10 7 12 18 23 28 32 34 32 31 35 37 40
95 87 91 99 85 84 85 85 81 77 69 63 60 59 49 43 34 32 30 29 30 30 29 29 27 23 15 5 4 7 6 6 10 20 24 27 28 31 37 33 35 37 40
97 91 87 95 92 84 83 85 84 79 75 71 66 59 52 46 35 34 36 35 31 30 31 26 26 25 20 12 14 9 6 7 9 13 19 26 29 29 36 33 34 36 42
97 92 87 95 89 88 83 87 88 81 80 76 68 61 54 42 33 31 35 39 37 30 25 26 25 24 20 19 16 9 5 8 12 19 23 22 26 27 30 33 34 38 39
95 91 93 98 93 93 84 79 85 85 83 77 75 74 61 47 38 36 35 31 33 33 30 27 22 22 23 21 17 10 6 9 11 21 25 20 27 31 30 27 34 30 37
96 98 91 96 95 91 85 81 87 87 89 86 82 77 68 57 47 40 38 37 36 32 24 28 30 24 25 23 18 14 7 6 10 11 25 21 29 34 33 26 28 28 38
96 98 94 98 93 80 100 89 96 91 91 90 91 89 77 58 52 46 44 48 41 36 36 30 27 27 23 20 16 15 9 11 15 17 33 27 29 37 33 25 35 31 37
87 94 91 94 84 87 93 90 93 97 93 97 97 91 71 62 54 48 55 51 44 43 44 38 33 30 24 20 15 10 7 8 13 17 21 31 31 40 33 27 39 38 43
78 88 83 97 91 88 78 84 96 102 99 100 99 85 64 57 48 53 58 54 51 52 49 43 35 32 25 18 13 8 6 8 14 16 23 33 32 40 43 32 43 38 40
Wind_Direction_500mb
189 197 212 214 234 290 332 182 161 182 159 118 128 110 101 90 86 93 88 60 51 50 63 58 57 62 52 44 39 34 31 26 17 2 345 332 327 317 302 305 308 308 299
207 212 225 232 244 274 238 203 213 210 210 182 165 141 125 113 103 100 99 84 57 50 49 62 60 53 47 44 43 38 30 27 22 16 4 351 344 338 333 330 322 311 308
217 220 226 236 248 254 224 216 220 219 201 187 184 167 153 140 125 101 105 102 74 62 45 55 62 54 55 44 40 34 28 30 29 24 18 8 350 348 343 330 332 326 313
226 227 233 241 245 243 214 212 203 194 189 199 196 183 185 178 164 139 125 129 115 86 58 70 61 61 60 58 46 27 22 23 21 21 22 20 8 349 341 335 325 321 319
234 231 236 243 237 231 217 210 211 189 188 198 198 199 198 198 195 183 169 164 152 142 115 119 61 59 61 48 35 27 24 23 18 17 19 18 15 9 353 337 329 327 321
240 237 236 238 228 223 214 213 207 203 201 202 195 196 202 210 212 205 205 202 209 185 158 153 92 84 1 12 12 14 21 18 13 7 7 8 9 5 3 358 349 332 324
235 243 238 241 231 220 218 213 209 207 201 197 198 189 197 206 212 214 214 219 221 226 206 222 179 128 34 358 4 6 10 8 3 2 1 1 4 7 2 359 357 351 344
231 237 238 240 231 222 218 216 215 210 197 183 185 169 168 188 215 219 220 215 213 194 202 225 236 266 346 10 360 354 0 2 1 1 3 8 11 6 2 359 360 0 353
234 233 236 230 230 224 229 223 217 215 208 192 189 176 168 208 180 202 201 195 199 180 198 223 234 271 305 338 11 357 350 352 355 358 1 7 12 9 5 358 356 355 353
232 230 229 225 230 219 226 227 221 219 215 207 202 214 213 211 190 175 190 193 193 193 199 197 226 251 301 333 337 335 341 348 350 351 356 2 6 4 3 1 354 350 347
237 229 225 222 226 220 233 228 224 219 216 216 215 220 224 233 225 187 189 181 189 194 199 206 221 262 303 324 344 327 335 341 342 345 355 1 1 360 358 355 355 352 351
253 241 224 217 230 232 235 224 223 221 219 216 216 217 220 213 212 211 189 186 187 187 199 207 221 247 273 293 315 328 333 337 342 351 358 356 354 353 352 349 344 344 344
235 238 227 213 222 266 239 226 223 220 217 217 217 217 213 221 226 206 194 182 182 180 185 204 219 240 268 298 317 329 334 339 348 356 359 354 347 345 344 341 341 342 342
232 242 227 201 289 239 225 227 224 222 219 216 215 214 210 220 218 210 189 188 182 192 200 201 224 239 268 296 313 331 345 352 352 360 359 352 341 335 335 337 338 339 339
236 238 228 218 239 239 222 222 223 221 219 217 215 212 209 215 211 212 209 195 199 193 199 207 199 233 253 301 323 357 1 355 0 358 354 345 336 332 331 335 338 341 342
237 235 228 228 237 229 220 217 221 220 220 216 213 209 209 211 209 212 208 203 197 195 189 192 194 207 237 310 351 3 9 5 359 1 355 349 345 342 342 343 347 347 348
235 233 236 232 236 221 219 216 220 221 218 217 214 210 211 211 214 215 209 206 200 189 182 178 172 199 225 24 4 1 360 4 5 4 2 7 9 6 2 357 353 351 352
233 236 234 230 230 218 219 217 219 220 219 218 215 212 212 214 218 216 208 201 202 193 176 160 164 170 165 127 358 4 12 22 13 350 7 6 4 358 349 345 343 342 345
231 233 230 228 224 219 220 219 219 222 221 221 220 217 217 214 216 207 205 205 195 189 175 166 160 158 157 149 20 49 59 25 359 347 350 352 347 347 346 341 337 333 333
229 231 229 225 223 220 221 217 218 220 224 221 219 218 217 215 214 200 197 202 199 191 184 161 154 158 153 138 124 109 60 357 341 337 344 346 350 353 355 349 337 334 334
233 231 228 225 223 221 219 217 219 222 222 221 216 214 215 210 204 200 200 199 195 184 174 166 160 162 155 141 138 120 72 345 345 354 354 347 349 346 340 340 336 325 332
232 232 230 227 223 219 217 219 223 224 224 220 215 211 207 200 196 196 199 200 195 191 184 174 173 170 169 149 138 126 68 16 5 343 357 351 352 353 341 334 334 335 330
233 233 232 229 226 222 219 210 217 224 224 220 218 212 207 203 188 186 189 193 194 188 197 184 173 177 172 164 150 124 75 46 10 354 3 353 345 351 344 337 340 342 342
235 235 231 228 229 233 225 213 212 212 221 222 218 214 208 198 193 192 186 198 194 186 178 177 183 181 175 171 154 133 94 38 8 347 1 349 346 345 339 336 339 342 345
238 233 233 232 226 226 226 222 214 213 216 219 210 206 202 206 193 176 198 198 189 183 179 179 186 189 186 176 173 139 81 43 15 351 358 354 347 341 342 335 340 337 342
242 235 229 225 222 222 227 225 222 218 214 210 200 201 201 200 197 175 199 198 191 185 179 181 186 187 189 190 184 152 112 42 13 1 339 359 349 347 342 333 339 338 338
Wind_Speed_850mb
15 15 10 8 5 4 3 0 3 2 1 5 12 13 15 18 22 21 21 29 34 35 31 31 36 36 35 36 36 35 35 30 23 20 19 18 17 13 13 13 14 18 22
19 14 12 9 7 6 4 4 4 3 7 9 12 11 13 15 17 20 18 18 25 29 29 26 27 30 34 36 40 43 46 42 33 29 24 20 20 21 22 23 23 24 26
21 18 14 12 11 10 9 8 7 6 11 16 16 13 13 13 13 13 16 14 14 21 22 20 24 25 29 33 39 45 50 48 42 37 29 21 17 18 19 19 21 22 23
26 20 18 16 13 15 14 13 10 10 14 17 19 18 17 13 11 9 9 11 12 9 13 11 16 17 22 25 28 39 45 47 50 44 36 29 20 16 17 18 18 19 21
30 26 23 19 17 19 20 17 14 12 13 16 22 22 20 16 13 10 8 8 9 10 11 5 5 8 12 17 26 32 38 42 46 48 42 36 32 27 22 22 21 23 24
34 35 32 25 22 25 26 25 20 17 15 18 24 25 23 21 17 14 11 11 11 10 9 10 7 7 6 13 22 27 31 35 41 46 42 37 32 30 29 28 27 24 22
41 41 36 32 29 29 30 29 27 22 22 22 24 28 24 22 19 17 15 14 15 11 9 9 6 6 7 19 23 26 29 35 43 46 43 36 28 27 30 31 31 32 32
47 45 41 34 32 34 36 36 34 28 26 28 29 23 15 11 19 18 16 16 18 14 12 14 12 7 8 9 17 25 31 38 43 44 41 35 31 28 26 29 34 36 33
58 50 45 40 32 36 39 41 39 33 30 32 31 19 14 14 17 15 16 18 18 16 19 22 15 11 13 12 14 21 34 42 45 44 37 33 32 32 30 31 32 32 34
67 62 55 45 33 37 42 44 43 37 31 31 33 35 25 17 16 12 17 19 22 25 26 17 18 16 14 11 20 29 37 43 45 45 35 31 32 33 33 31 31 34 35
72 68 56 49 30 33 43 51 50 45 37 34 33 33 35 31 28 16 19 20 25 27 28 23 17 15 15 12 15 29 36 38 41 35 30 30 32 33 34 32 33 36 37
71 66 53 39 36 44 50 53 53 48 43 37 34 32 29 29 30 25 20 27 23 24 28 24 18 15 16 20 19 28 34 38 33 28 29 32 34 36 34 34 37 37 37
71 84 70 33 12 50 62 58 58 53 48 43 38 35 30 28 21 23 23 31 27 23 19 23 20 17 15 15 19 24 31 27 23 23 26 28 31 35 37 39 40 41 41
80 79 71 44 36 51 70 65 60 56 52 47 43 38 31 24 20 20 24 31 29 23 21 17 19 15 13 13 19 23 16 18 21 25 28 30 31 32 35 38 40 43 44
99 82 83 61 46 58 69 73 67 63 59 53 47 40 32 27 25 24 27 30 29 26 27 25 15 17 11 11 18 15 17 20 27 30 30 30 31 34 37 40 42 44 45
93 84 93 82 61 72 73 77 71 69 65 60 53 47 40 34 30 26 31 35 32 26 23 23 21 15 9 8 11 14 18 22 25 27 30 29 29 31 32 33 33 38 43
92 84 96 94 71 75 79 79 75 73 68 60 55 49 42 36 30 25 28 30 30 28 28 25 21 17 6 2 9 15 17 16 17 26 26 29 30 31 30 29 33 36 39
93 83 94 100 74 81 84 84 81 76 70 65 55 51 44 38 30 25 28 30 30 32 31 31 25 14 10 1 8 12 10 7 12 18 23 28 32 34 32 31 35 37 40
95 87 91 99 85 84 85 85 81 77 69 63 60 59 49 43 34 32 30 29 30 30 29 29 27 23 15 5 4 7 6 6 10 20 24 27 28 31 37 33 35 37 40
97 91 87 95 92 84 83 85 84 79 75 71 66 59 52 46 35 34 36 35 31 30 31 26 26 25 20 12 14 9 6 7 9 13 19 26 29 29 36 33 34 36 42
97 92 87 95 89 88 83 87 88 81 80 76 68 61 54 42 33 31 35 39 37 30 25 26 25 24 20 19 16 9 5 8 12 19 23 22 26 27 30 33 34 38 39
95 91 93 98 93 93 84 79 85 85 83 77 75 74 61 47 38 36 35 31 33 33 30 27 22 22 23 21 17 10 6 9 11 21 25 20 27 31 30 27 34 30 37
96 98 91 96 95 91 85 81 87 87 89 86 82 77 68 57 47 40 38 37 36 32 24 28 30 24 25 23 18 14 7 6 10 11 25 21 29 34 33 26 28 28 38
96 98 94 98 93 80 100 89 96 91 91 90 91 89 77 58 52 46 44 48 41 36 36 30 27 27 23 20 16 15 9 11 15 17 33 27 29 37 33 25 35 31 37
87 94 91 94 84 87 93 90 93 97 93 97 97 91 71 62 54 48 55 51 44 43 44 38 33 30 24 20 15 10 7 8 13 17 21 31 31 40 33 27 39 38 43
78 88 83 97 91 88 78 84 96 102 99 100 99 85 64 57 48 53 58 54 51 52 49 43 35 32 25 18 13 8 6 8 14 16 23 33 32 40 43 32 43 38 40
Wind_Direction_850mb
189 197 212 214 234 290 332 182 161 182 159 118 128 110 101 90 86 93 88 60 51 50 63 58 57 62 52 44 39 34 31 26 17 2 345 332 327 317 302 305 308 308 299
207 212 225 232 244 274 238 203 213 210 210 182 165 141 125 113 103 100 99 84 57 50 49 62 60 53 47 44 43 38 30 27 22 16 4 351 344 338 333 330 322 311 308
217 220 226 236 248 254 224 216 220 219 201 187 184 167 153 140 125 101 105 102 74 62 45 55 62 54 55 44 40 34 28 30 29 24 18 8 350 348 343 330 332 326 313
226 227 233 241 245 243 214 212 203 194 189 199 196 183 185 178 164 139 125 129 115 86 58 70 61 61 60 58 46 27 22 23 21 21 22 20 8 349 341 335 325 321 319
234 231 236 243 237 231 217 210 211 189 188 198 198 199 198 198 195 183 169 164 152 142 115 119 61 59 61 48 35 27 24 23 18 17 19 18 15 9 353 337 329 327 321
240 237 236 238 228 223 214 213 207 203 201 202 195 196 202 210 212 205 205 202 209 185 158 153 92 84 1 12 12 14 21 18 13 7 7 8 9 5 3 358 349 332 324
235 243 238 241 231 220 218 213 209 207 201 197 198 189 197 206 212 214 214 219 221 226 206 222 179 128 34 358 4 6 10 8 3 2 1 1 4 7 2 359 357 351 344
231 237 238 240 231 222 218 216 215 210 197 183 185 169 168 188 215 219 220 215 213 194 202 225 236 266 346 10 360 354 0 2 1 1 3 8 11 6 2 359 360 0 353
234 233 236 230 230 224 229 223 217 215 208 192 189 176 168 208 180 202 201 195 199 180 198 223 234 271 305 338 11 357 350 352 355 358 1 7 12 9 5 358 356 355 353
232 230 229 225 230 219 226 227 221 219 215 207 202 214 213 211 190 175 190 193 193 193 199 197 226 251 301 333 337 335 341 348 350 351 356 2 6 4 3 1 354 350 347
237 229 225 222 226 220 233 228 224 219 216 216 215 220 224 233 225 187 189 181 189 194 199 206 221 262 303 324 344 327 335 341 342 345 355 1 1 360 358 355 355 352 351
253 241 224 217 230 232 235 224 223 221 219 216 216 217 220 213 212 211 189 186 187 187 199 207 221 247 273 293 315 328 333 337 342 351 358 356 354 353 352 349 344 344 344
235 238 227 213 222 266 239 226 223 220 217 217 217 217 213 221 226 206 194 182 182 180 185 204 219 240 268 298 317 329 334 339 348 356 359 354 347 345 344 341 341 342 342
232 242 227 201 289 239 225 227 224 222 219 216 215 214 210 220 218 210 189 188 182 192 200 201 224 239 268 296 313 331 345 352 352 360 359 352 341 335 335 337 338 339 339
236 238 228 218 239 239 222 222 223 221 219 217 215 212 209 215 211 212 209 195 199 193 199 207 199 233 253 301 323 357 1 355 0 358 354 345 336 332 331 335 338 341 342
237 235 228 228 237 229 220 217 221 220 220 216 213 209 209 211 209 212 208 203 197 195 189 192 194 207 237 310 351 3 9 5 359 1 355 349 345 342 342 343 347 347 348
235 233 236 232 236 221 219 216 220 221 218 217 214 210 211 211 214 215 209 206 200 189 182 178 172 199 225 24 4 1 360 4 5 4 2 7 9 6 2 357 353 351 352
233 236 234 230 230 218 219 217 219 220 219 218 215 212 212 214 218 216 208 201 202 193 176 160 164 170 165 127 358 4 12 22 13 350 7 6 4 358 349 345 343 342 345
231 233 230 228 224 219 220 219 219 222 221 221 220 217 217 214 216 207 205 205 195 189 175 166 160 158 157 149 20 49 59 25 359 347 350 352 347 347 346 341 337 333 333
229 231 229 225 223 220 221 217 218 220 224 221 219 218 217 215 214 200 197 202 199 191 184 161 154 158 153 138 124 109 60 357 341 337 344 346 350 353 355 349 337 334 334
233 231 228 225 223 221 219 217 219 222 222 221 216 214 215 210 204 200 200 199 195 184 174 166 160 162 155 141 138 120 72 345 345 354 354 347 349 346 340 340 336 325 332
232 232 230 227 223 219 217 219 223 224 224 220 215 211 207 200 196 196 199 200 195 191 184 174 173 170 169 149 138 126 68 16 5 343 357 351 352 353 341 334 334 335 330
233 233 232 229 226 222 219 210 217 224 224 220 218 212 207 203 188 186 189 193 194 188 197 184 173 177 172 164 150 124 75 46 10 354 3 353 345 351 344 337 340 342 342
235 235 231 228 229 233 225 213 212 212 221 222 218 214 208 198 193 192 186 198 194 186 178 177 183 181 175 171 154 133 94 38 8 347 1 349 346 345 339 336 339 342 345
238 233 233 232 226 226 226 222 214 213 216 219 210 206 202 206 193 176 198 198 189 183 179 179 186 189 186 176 173 139 81 43 15 351 358 354 347 341 342 335 340 337 342
242 235 229 225 222 222 227 225 222 218 214 210 200 201 201 200 197 175 199 198 191 185 179 181 186 187 189 190 184 152 112 42 13 1 339 359 349 347 342 333 339 338 338